Retour au catalogue

THOR ABLESTAR DEB

ActifLEO
NORAD 15783·DEBRIS·🇺🇸 United States

Lancé Jun 29, 1961 depuis Cape Canaveral Space Force Station

Loading…

Prochains Passages (prochaines 24 heures)

TLE

FraisSource: Space-Track

Époque: Sep 14, 2026, 03:58 UTC

1 15783U 61015LG  26257.16566818  .00004333  00000-0  51974-3 0  9992
2 15783  67.0361 155.7689 0033335 158.3235 352.4448 14.84657593196024

Suivez THOR ABLESTAR DEB en temps réel avec AllMySat

Download on the App Store